Weather History for Tanana, AK

Change the Weather History Date:

Tuesday, March 19, 2013

  Actual Average Record
Temperature  
Mean Temperature -2 °F -  
Max Temperature 17 °F 20 °F 42 °F (1998)
Min Temperature -20 °F -6 °F -37 °F (1959)
Degree Days  
Heating Degree Days 67    
Moisture  
Dew Point -14 °F    
Average Humidity 60    
Maximum Humidity 79    
Minimum Humidity 38    
Precipitation  
Precipitation 0.00 in - - ()
Snow  
Snow 0.00 in - - ()
Snow Depth 11.00 in    
Sea Level Pressure  
Sea Level Pressure 30.19 in    
Wind  
Wind Speed 2 mph (NW)    
Max Wind Speed 13 mph    
Max Gust Speed -    
Visibility 10 miles    
Events      
Averages and records for this station are not official NWS values.
T = Trace of Precipitation, MM = Missing Value Source: NWS Daily Summary

Daily Weather History Graph

Daily Weather History Graph

Search for Another Location

Airport:

Trip Planner

Search our weather history database for the weather conditions in past years. The results will help you decide how hot, cold, wet, or windy it might be!

Date:

Astronomy

Mar. 19, 2013 Rise Set
Actual Time 8:10 AM AKDT 8:22 PM AKDT
Civil Twilight 7:21 AM AKDT 9:12 PM AKDT
Nautical Twilight 6:20 AM AKDT 10:13 PM AKDT
Astronomical Twilight 5:11 AM AKDT 11:24 PM AKDT
Moon 10:52 AM AKDT (3/19) 5:35 AM AKDT (3/19)
Length of Visible Light 13h 51m
Length of Day
12h 12m
Waxing Crescent, 51% of the Moon is Illuminated
Mar 19
Waxing Crescent
Mar 27
Full
Apr 2
Last Quarter
Apr 10
New
Apr 18
First Quarter

Hourly Weather History & Observations

Time (AKDT) Temp. Windchill Dew Point Humidity Pressure Visibility Wind Dir Wind Speed Gust Speed Precip Events Conditions
12:52 AM -9.9 °F - -16.1 °F 74% 30.16 in 10.0 mi Calm Calm - N/A   Clear
1:52 AM -11.9 °F - -18.0 °F 74% 30.17 in 10.0 mi Calm Calm - N/A   Clear
2:52 AM -8.0 °F - -14.1 °F 75% 30.18 in 10.0 mi Calm Calm - N/A   Clear
3:52 AM -16.1 °F - -20.9 °F 79% 30.19 in 10.0 mi Calm Calm - N/A   Clear
4:52 AM -18.9 °F - -25.1 °F 74% 30.20 in 10.0 mi Calm Calm - N/A   Clear
5:52 AM -18.9 °F - -25.1 °F 74% 30.21 in 10.0 mi Calm Calm - N/A   Clear
6:52 AM -20.9 °F - -27.0 °F 73% 30.22 in 10.0 mi Calm Calm - N/A   Clear
7:52 AM -20.0 °F - -25.1 °F 78% 30.23 in 10.0 mi Calm Calm - N/A   Clear
8:52 AM -20.9 °F - -27.0 °F 73% 30.24 in 10.0 mi Calm Calm - N/A   Clear
9:52 AM -14.1 °F - -18.9 °F 79% 30.25 in 10.0 mi Calm Calm - N/A   Clear
10:52 AM -7.1 °F -18.1 °F -14.1 °F 72% 30.24 in 10.0 mi WSW 4.6 mph - N/A   Clear
11:52 AM 1.0 °F - -9.9 °F 60% 30.24 in 10.0 mi Calm Calm - N/A   Partly Cloudy
12:52 PM 7.0 °F - -8.0 °F 51% 30.23 in 10.0 mi Calm Calm - N/A   Partly Cloudy
1:52 PM 10.9 °F - -7.1 °F 44% 30.21 in 10.0 mi Calm Calm - N/A   Partly Cloudy
2:52 PM 14.0 °F 8.2 °F -7.1 °F 39% 30.20 in 10.0 mi SW 3.5 mph - N/A   Partly Cloudy
3:52 PM 16.0 °F 4.4 °F -6.0 °F 38% 30.18 in 10.0 mi NNW 9.2 mph - N/A   Partly Cloudy
4:52 PM 16.0 °F 6.3 °F -5.1 °F 39% 30.17 in 10.0 mi NNW 6.9 mph - N/A   Clear
5:52 PM 15.1 °F 3.3 °F -5.1 °F 41% 30.16 in 10.0 mi NNW 9.2 mph - N/A   Partly Cloudy
6:52 PM 12.9 °F -1.6 °F -7.1 °F 41% 30.16 in 10.0 mi North 12.7 mph - N/A   Partly Cloudy
7:52 PM 10.0 °F 1.8 °F -7.1 °F 46% 30.16 in 10.0 mi NW 4.6 mph - N/A   Partly Cloudy
8:52 PM 7.0 °F -8.3 °F -8.0 °F 51% 30.15 in 10.0 mi NW 11.5 mph - N/A   Partly Cloudy
9:52 PM 5.0 °F -4.1 °F -9.0 °F 52% 30.14 in 10.0 mi West 4.6 mph - N/A   Clear
10:52 PM 1.0 °F -14.0 °F -9.9 °F 60% 30.14 in 10.0 mi NW 9.2 mph - N/A   Clear
11:52 PM 1.9 °F - -9.9 °F 58% 30.13 in 10.0 mi Calm Calm - N/A   Clear